Weather Roundup
Issued by NWS Corpus Christi, TX

Home | Current Version | Previous Version | Text Only | Print | Product List | Glossary On
Versions: 1 2 3 4 5 6 7 8 9 10 11 12 13 14 15 16 17 18 19 20 21 22 23 24 25 26 27 28 29 30 31 32 33 34 35 36 37 38 39 40 41 42 43 44 45 46 47 48 49 50
000
ASUS44 KCRP 220011
HRRCRP

SOUTH TEXAS REGIONAL WEATHER ROUNDUP
NATIONAL WEATHER SERVICE CORPUS CHRISTI TX
700 PM CDT SAT APR 21 2018


TXZ229>244-220100-
...CORPUS CHRISTI AREA OBSERVATIONS...

CITY           SKY/WX    TMP DP  RH WIND       PRES   REMARKS
CORPUS CHRISTI CLOUDY    76  71  85 S20       29.85S
NAS CORPUS CHR CLOUDY    77  50  39 SE20G28   29.84F
ROCKPORT       CLOUDY    73  69  87 SE13G23   29.86R
KINGSVILLE ARP CLOUDY    78  76  93 E9        29.84S
KINGSVILLE NAS CLOUDY    78  71  79 SE17G23   29.84R
ALICE          PTSUNNY   78  70  76 SE9       29.84R
$$

...VICTORIA AREA OBSERVATIONS...

CITY           SKY/WX    TMP DP  RH WIND       PRES   REMARKS
PORT LAVACA    LGT RAIN  72  68  88 SE15      29.87S
VICTORIA       CLOUDY    72  68  87 SE18      29.86F
BEEVILLE       HVY RAIN  71  70  97 W5        29.87R
PLEASANTON     MOSUNNY   77  67  71 CALM      29.87S
SAN ANTONIO    MOSUNNY   78  64  61 W6        29.87F
$$

...LAREDO AREA OBSERVATIONS...

CITY           SKY/WX    TMP DP  RH WIND       PRES   REMARKS
LAREDO         SUNNY     84  64  50 N7        29.85R
COTULLA        SUNNY     82  65  56 N6        29.85S
DEL RIO        SUNNY     90  26  10 N6        29.83S
MCALLEN        MOSUNNY   84  72  67 SE20G26   29.82S
HEBBRONVILLE   SUNNY     84  60  43 CALM      29.86R
$$

...OTHER TEXAS OBSERVATIONS...

CITY           SKY/WX    TMP DP  RH WIND       PRES   REMARKS
BROWNSVILLE    PTSUNNY   80  72  76 SE18G25   29.86R
HOUSTON        CLOUDY    71  69  93 SE14      29.90F
COL. STATION   TSTM      70  69  97 S12       29.88S
AUSTIN         PTSUNNY   71  69  93 E5        29.87F
WACO           MOSUNNY   70  65  84 S13       29.85F
FORT WORTH     TSTM      61  61 100 N13       29.90F FOG
WICHITA FALLS  CLOUDY    55  49  80 N13       30.03R
LUBBOCK        PTSUNNY   57  43  59 N14G23    30.11R
EL PASO        MOSUNNY   76  25  15 NW14      30.03S
$$

...MARINE OBSERVATIONS...

STATION/POSITION TIME  SKY/WX   TEMP    WIND        PRES    VSBY  WAVE   SWELL
                                AIR SEA DIR/SP/G                  HT/PER HT/PER
                 (UTC)          (F)     (DEG/KT/KT) (MB)    (MI)  (FT/S) (FT/S)
PORT ARANSAS     0000            73 72  130/ 18/ 20 1010.6F
BUOY 90 E PORT A 2350            74 73  110/ 16/ 17 1012.0R         5/ 6
BUOY 200 E PT IS 2350            75 76  120/ 12/ 14 1013.7F         4/ 6   3/ 6
BUOY 15 E GALVES 2250            71 70  120/ 12/ 16 1013.9          4/ 5   2/11
$$



USA.gov is the U.S. government's official web portal to all federal, state and local government web resources and services.